Zurück zum Katalog

OPS 7898

P/L 3

AktivNavigationLEO
NORAD 5681·PAYLOAD·🇺🇸 United States

Gestartet Dec 14, 1971 von Vandenberg Space Force Base

Loading…

Nächste Überflüge (nächste 24 Stunden)

TLE

AktuellSource: Space-Track

Epoche: Sep 14, 2026, 04:59 UTC

1 05681U 71110D   26257.20821509 -.00000009  00000-0  42981-4 0  9997
2 05681  69.9891 182.1714 0006106  46.2381 313.9218 13.74649204369055

Verfolge OPS 7898 in Echtzeit mit AllMySat

Download on the App Store